Location: Angwan Shehu
(11.2514°N, 7.4613°E)
Time: 05:44:26
(UTC+00:00)

SR - Pass Details

Date: 17 April 2021
Orbit: 573 x 882 km, 66.7° (Epoch: 12 May)

Event Time Altitude Azimuth Distance (km) Brightness Sun altitude
Rises 07:11:28 0° 226° (SW) 3,109 ? 26.7°
Reaches altitude 10° 07:14:06 10° 239° (WSW) 2,243 ? 27.4°
Maximum altitude 07:18:20 25° 295° (WNW) 1,513 ? 28.4°
Drops below altitude 10° 07:22:50 10° 350° (N) 2,405 ? 29.5°
Sets 07:25:47 0° 2° (N) 3,382 ? 30.2°
